Location: Dehesa de la Cepeda
(40.6574°N, 4.3013°W)
Time: 05:28:54
(UTC+00:00)

S-56A Canister/Altair - Visible Passes

Search period start: 26 July 2021 00:00
Search period end: 05 August 2021 00:00
Orbit: 632 x 2501 km, 38.9° (Epoch: 25 July)

Date Brightness Start Highest point End Pass type
(mag) Time Alt. Az. Time Alt. Az. Time Alt. Az.
26 Jul 9.7 20:30:52 10° W 20:45:32 76° SSW 20:55:15 14° ESE visible
26 Jul 9.5 22:38:40 10° WNW 22:50:22 42° SW 22:52:39 37° S visible
27 Jul 9.8 19:57:06 10° W 20:12:08 79° SSW 20:23:26 10° ESE visible
27 Jul 9.6 22:04:45 10° WNW 22:17:24 47° SW 22:21:22 35° S visible
28 Jul 10.7 00:15:21 10° W 00:18:45 13° WSW 00:18:45 13° WSW visible
28 Jul 9.8 21:30:54 10° WNW 21:44:20 53° SSW 21:50:07 29° SSE visible
28 Jul 10.5 23:40:27 10° W 23:47:30 18° SW 23:47:30 18° SW visible
29 Jul 9.9 20:57:04 10° WNW 21:11:09 58° SSW 21:18:54 22° SE visible
29 Jul 10.4 23:05:59 10° W 23:14:47 22° SW 23:16:18 22° SW visible
30 Jul 9.9 20:23:18 10° WNW 20:37:53 62° SSW 20:47:42 15° SE visible
30 Jul 10.3 22:31:43 10° W 22:41:58 27° SW 22:45:07 24° SSW visible
31 Jul 10.0 19:49:34 10° W 20:04:30 67° SSW 20:16:17 10° SE visible
31 Jul 10.2 21:57:36 10° W 22:09:04 32° SW 22:13:58 23° S visible
01 Aug 10.3 21:23:36 10° W 21:36:03 37° SW 21:42:52 20° S visible
02 Aug 10.4 20:49:41 10° WNW 21:02:57 41° SW 21:11:49 16° SSE visible
02 Aug 11.0 23:02:40 10° WSW 23:05:54 11° WSW 23:08:56 10° SW visible
03 Aug 10.4 20:15:52 10° WNW 20:29:44 46° SW 20:40:49 11° SSE visible
03 Aug 11.0 22:26:40 10° W 22:33:07 15° SW 22:38:13 11° SSW visible
04 Aug 10.4 19:42:09 10° WNW 19:56:25 51° SW 20:08:27 10° SE visible
04 Aug 10.9 21:51:45 10° W 22:00:15 19° SW 22:07:16 11° SSW visible
